Flag for Canada Weather past 2 weeks in Arctic Bay, Nunavut Territory, Canada

Now
-35 °F

Clear.


Feels Like: -53 °F
Forecast: -40 / -25 °F
Wind: 6 mph from Southwest

Location: Pond Inlet

Current Time: Mar 4, 2015 at 10:04:42 PM

Latest Report: Mar 4, 2015 at 9:00 PM


Visibility: 9 mi

Pressure: 29.47 "Hg

Humidity: 66%

Dew point: -42 °F

Location of Arctic BayLocation

Historic Weather in Arctic Bay — Graph

°F

Arctic Bay temperature yesterday

Maximum temperature yesterday: -29 °F (at 12:00 PM)
Minimum temperature yesterday: -36 °F (at 3:00 AM)
Average temperature yesterday: -34 °F

Past Weeks' High & Low Weather Summary

 TemperatureHumidityPressure
High-22 °F (Feb 28, 2:00 PM)75% (Feb 22, 11:00 AM)30.52 "Hg (Feb 22, 11:00 AM)
Low-40 °F (Mar 4, 7:00 AM)58% (Mar 4, 1:00 AM)29.47 "Hg (Mar 4, 9:00 PM)
Average-31 °F67%29.86 "Hg
* Reported Feb 17 9:00 PM — Mar 4 9:00 PM, Arctic Bay, Weather by CustomWeather, © 2015

Note: Actual official high and low records may vary slightly from our data, if they occured in-between our weather recording intervals... More about our weather records

Advertising

Arctic Bay weather history for previous 24 hours

 ConditionsComfort  
Time TempWeatherWind HumidityBarometerVisibility
9:00 PM
Wed, Mar 4
-35 °FClear.6 mph66%29.47 "Hg9 mi
8:00 PM-36 °FClear.8 mph66%29.49 "Hg9 mi
7:00 PM-38 °FClear.8 mph58%29.51 "Hg9 mi
5:01 PM-38 °FClear.5 mph65%29.53 "Hg4 mi
4:00 PM-35 °FClear.3 mph66%29.55 "Hg30 mi
3:00 PM-35 °FSunny.5 mph66%29.58 "Hg30 mi
2:00 PM-33 °FSunny.6 mph66%29.59 "Hg30 mi
1:00 PM-36 °FSunny.7 mph66%29.60 "Hg30 mi
12:00 PM-36 °FSunny.6 mph66%29.62 "Hg30 mi
11:00 AM-36 °FPassing clouds.5 mph66%29.65 "Hg25 mi
10:00 AM-35 °FSunny.2 mph66%29.67 "Hg8 mi
9:04 AM-35 °FSunny.2 mph59%29.69 "Hg1 mi
8:00 AM-38 °FSunny.3 mph58%29.71 "Hg9 mi
7:00 AM-40 °FSunny.5 mph58%29.73 "Hg9 mi
6:00 AM-38 °FSunny.6 mph65%29.75 "Hg9 mi
5:00 AM-38 °FClear.5 mph65%29.76 "Hg9 mi
4:00 AM-38 °FClear.3 mph58%29.79 "Hg9 mi
3:00 AM-38 °FClear.3 mph65%29.80 "Hg9 mi
2:00 AM-36 °FClear.5 mph59%29.81 "Hg9 mi
1:00 AM-38 °FClear.5 mph58%29.84 "Hg9 mi
12:00 AM-38 °FClear.5 mph65%29.86 "Hg9 mi
11:04 PM
Tue, Mar 3
-35 °FClear.5 mph66%29.88 "Hg2 mi
10:50 PM-36 °FClear.No wind66%29.88 "Hg1 mi
10:00 PM-35 °FClear.3 mph59%29.89 "Hg9 mi
Weather by CustomWeather, © 2015

See weather overviewHow to use our weather pages